Tracking 25949 objects as of 8-Aug-2022
HD Live streaming from Space Station
objects crossing your sky now

COSMOS 1275 DEB

Track COSMOS 1275 DEB now!
10-day predictions


NORAD ID: 42101
Int'l Code: 1981-053PM
Perigee: 773.0 km
Apogee: 779.7 km
Inclination: 82.8 °
Period: 100.2 minutes
Semi major axis: 7147 km
RCS: Unknown
Launch date: June 4, 1981
Source: Commonwealth of Independent States (former USSR) (CIS)
Launch site: PLESETSK MISSILE AND SPACE COMPLEX (PKMTR)

Note: This is SATELLITE DEBRIS
aabbcc
Your satellite tracking list
Your tracking list is empty




NASA's NSSDC Master Catalog

Two Line Element Set (TLE):
1 42101U 81053PM  22220.22817820  .00002030  00000-0  68241-3 0  9992
2 42101  82.7822  33.2324 0004679 181.5942 178.5233 14.36767801408488
Source of the keplerian elements: AFSPC